Home > Weather > Eidsvoll > Past weeks

Flag for Norway Past Weather in Eidsvoll, Norway — Yesterday and Last 2 Weeks

Now
57 °F

Broken clouds.


Feels Like: 54 °F
Forecast: 46 / 61 °F
Wind: 13 mph from Southeast

Location: Oslo Gardermoen Airport

Current Time: Jun 30, 2016 at 10:43:59 AM

Latest Report: Jun 30, 2016 at 9:50 AM


Visibility: N/A

Pressure: 29.68 "Hg

Humidity: 82%

Dew Point: 52 °F

Location of EidsvollLocation

Past Weather in Eidsvoll — Graph

°F

Eidsvoll Temperature Yesterday

Maximum temperature yesterday: 64 °F (at 12:50 PM)
Minimum temperature yesterday: 50 °F (at 3:20 AM)
Average temperature yesterday: 57 °F

High & Low Weather Summary for the Past Weeks

 TemperatureHumidityPressure
High75 °F (Jun 25, 3:20 PM)94% (Jun 15, 6:50 PM)30.15 "Hg (Jun 15, 6:50 PM)
Low48 °F (Jun 19, 3:50 AM)29% (Jun 16, 6:50 PM)29.56 "Hg (Jun 16, 5:20 PM)
Average60 °F71%29.82 "Hg
* Reported Jun 15 9:20 AM — Jun 30 9:20 AM, Eidsvoll, Weather by CustomWeather, © 2016

Note: Actual official high and low records may vary slightly from our data, if they occured in-between our weather recording intervals... More about our weather records

Advertising

Eidsvoll Weather History for the Previous 24 Hours

Scroll right to see more
 ConditionsComfort  
Time TempWeatherWind HumidityBarometerVisibility
9:20 AM
Thu, Jun 30
57 °FBroken clouds.13 mph88%29.68 "HgN/A
8:50 AM57 °FBroken clouds.12 mph88%29.68 "HgN/A
8:20 AM55 °FPartly sunny.13 mph94%29.68 "HgN/A
7:50 AM55 °FSprinkles. Broken clouds.10 mph94%29.68 "HgN/A
7:20 AM55 °FLight rain. Broken clouds.10 mph88%29.68 "HgN/A
6:50 AM55 °FLight rain. More clouds than sun.10 mph88%29.68 "HgN/A
6:20 AM55 °FBroken clouds.9 mph88%29.68 "HgN/A
5:50 AM55 °FPartly sunny.9 mph88%29.68 "HgN/A
5:20 AM55 °FLight rain. Partly sunny.8 mph88%29.71 "HgN/A
4:50 AM55 °FLight rain. Passing clouds.8 mph82%29.71 "HgN/A
4:20 AM55 °FPassing clouds.8 mph77%29.71 "HgN/A
3:50 AM55 °FPartly cloudy.8 mph77%29.71 "HgN/A
3:20 AM55 °FPassing clouds.7 mph77%29.71 "HgN/A
2:50 AM55 °FPassing clouds.3 mph77%29.74 "HgN/A
2:20 AM55 °FPartly cloudy.2 mph77%29.74 "HgN/A
1:50 AM55 °FClear.2 mph77%29.74 "Hg10 mi
1:20 AM54 °FClear.1 mph88%29.74 "Hg10 mi
12:50 AM55 °FClear.No wind77%29.74 "Hg10 mi
12:20 AM55 °FPassing clouds.1 mph77%29.74 "HgN/A
11:50 PM
Wed, Jun 29
55 °FPassing clouds.No wind77%29.77 "HgN/A
11:20 PM55 °FPassing clouds.5 mph82%29.77 "HgN/A
10:50 PM55 °FSprinkles. Partly sunny.No wind77%29.77 "HgN/A
10:20 PM55 °FSunny.No wind77%29.77 "Hg10 mi
9:50 PM57 °FSunny.2 mph72%29.77 "Hg10 mi
9:20 PM57 °FSunny.2 mph67%29.77 "Hg10 mi
8:50 PM57 °FScattered showers. Partly sunny.2 mph72%29.77 "HgN/A
8:20 PM57 °FScattered showers. Partly sunny.5 mph67%29.77 "HgN/A
7:50 PM61 °FSprinkles. Broken clouds.6 mph59%29.77 "HgN/A
7:20 PM63 °FScattered showers. Broken clouds.2 mph49%29.77 "HgN/A
6:50 PM64 °FScattered clouds.3 mph46%29.77 "HgN/A
6:20 PM64 °FSunny.1 mph49%29.77 "Hg10 mi
5:50 PM63 °FSunny.2 mph49%29.77 "Hg10 mi
5:20 PM61 °FPassing clouds.3 mph52%29.80 "HgN/A
4:50 PM61 °FPassing clouds.8 mph55%29.80 "HgN/A
4:20 PM61 °FSunny.8 mph55%29.80 "Hg10 mi
3:50 PM61 °FSprinkles. Partly sunny.2 mph55%29.80 "HgN/A
3:20 PM59 °FSprinkles. Partly sunny.18 mph63%29.83 "HgN/A
2:50 PM64 °FBroken clouds.7 mph43%29.83 "HgN/A
2:20 PM63 °FBroken clouds.8 mph42%29.83 "HgN/A
1:50 PM64 °FScattered clouds.8 mph46%29.83 "HgN/A
1:20 PM63 °FPartly sunny.10 mph42%29.83 "HgN/A
12:50 PM64 °FScattered clouds.8 mph43%29.83 "HgN/A
12:20 PM63 °FScattered clouds.7 mph49%29.83 "HgN/A
11:50 AM61 °FScattered clouds.8 mph48%29.83 "HgN/A
11:20 AM61 °FScattered clouds.7 mph59%29.83 "HgN/A
10:50 AM59 °FScattered clouds.9 mph55%29.86 "HgN/A
10:20 AM59 °FScattered clouds.10 mph59%29.86 "HgN/A
Weather by CustomWeather, © 2016

See weather overviewHow to use our weather pages